Theta_e
311 309 309 308 308 308 305 304 302 302 300 299 299 300 301 301 299 301 300 300 300 299 298 297 296 296 297 297 297 295 292 293
309 308 305 307 307 307 304 302 298 299 298 295 294 294 294 297 297 298 298 298 297 296 296 295 294 294 294 295 295 291 292 294
310 307 304 305 306 306 302 298 296 295 293 292 293 293 293 292 296 296 296 295 295 294 294 293 291 289 289 292 291 291 292 294
308 307 304 304 303 300 298 296 295 294 293 292 292 293 293 292 292 292 293 293 292 291 291 289 288 288 288 290 290 291 293 294
305 304 305 302 300 299 297 296 295 294 293 292 292 292 292 291 291 290 290 290 290 290 289 288 287 287 288 289 291 292 293 294
304 304 302 301 300 298 297 296 295 294 293 292 292 292 291 291 291 290 290 290 290 289 288 288 287 287 287 290 291 291 292 293
303 302 301 301 299 298 297 296 295 294 293 292 292 291 291 291 290 289 289 289 289 288 288 288 287 287 287 289 290 290 291 292
302 302 301 300 299 298 297 296 295 294 293 292 292 291 291 290 290 289 289 289 288 288 287 287 286 286 286 288 289 289 290 290
303 302 301 300 299 298 297 295 294 293 293 292 292 291 291 291 290 290 289 289 288 287 287 286 286 286 286 287 288 288 288 288
302 301 300 299 299 298 297 295 294 293 293 292 292 291 291 291 290 290 289 289 288 287 287 286 285 285 285 285 286 287 287 287
301 299 299 298 298 298 297 295 294 293 292 292 292 291 291 291 290 289 289 288 287 287 286 285 285 285 285 285 287 286 286 286
300 300 298 296 296 295 295 294 293 293 292 292 292 291 291 291 290 289 288 287 287 286 285 285 284 284 285 285 286 286 286 285
299 298 296 296 295 294 294 293 292 292 292 292 291 291 290 289 288 287 286 286 286 285 284 284 284 284 284 285 285 285 285 284
297 296 295 295 294 293 293 292 291 290 291 291 290 289 288 288 286 286 286 286 286 285 284 283 284 284 284 283 284 284 284 284
296 295 294 293 293 293 292 291 290 289 290 289 289 288 287 286 285 285 285 285 285 284 283 283 283 283 284 283 283 283 283 283
295 293 292 292 292 292 292 291 290 288 288 288 287 286 286 285 285 285 285 284 284 283 282 282 282 282 283 284 284 284 283 283
294 293 292 291 291 291 290 289 288 288 287 287 286 285 285 285 285 284 284 284 283 282 282 281 281 282 282 282 283 284 283 283
293 292 291 291 290 290 289 288 287 287 286 285 285 285 285 285 284 284 284 283 282 282 282 281 281 281 281 282 282 284 283 283
292 292 291 290 290 288 287 287 286 286 285 285 284 285 284 284 284 284 284 283 282 282 281 281 281 281 282 282 282 283 283 283
292 291 290 290 289 287 287 286 286 285 285 284 284 284 284 284 284 284 284 283 282 282 281 281 281 282 282 282 282 283 283 283
Wind_Speed
16 14 13 14 13 12 13 14 15 14 14 14 13 14 15 15 16 15 16 16 16 18 19 19 19 17 16 17 17 17 14 14
15 13 12 13 12 11 12 12 13 14 14 14 13 13 13 15 16 16 15 16 17 18 19 20 20 18 18 17 16 14 12 12
14 13 12 10 12 11 9 10 12 15 16 15 14 13 14 15 15 16 15 16 18 19 20 21 20 19 18 17 15 14 13 11
13 12 12 10 10 6 6 9 12 16 18 16 14 13 14 16 16 17 16 17 19 21 21 22 23 21 19 16 16 14 12 10
13 13 13 11 8 6 6 9 11 15 17 17 15 14 14 16 17 18 19 19 21 23 24 25 25 22 20 16 16 13 11 9
15 16 15 11 7 6 7 8 10 13 16 17 17 16 16 16 17 19 19 21 22 24 25 25 25 23 18 15 15 13 11 9
18 17 14 12 8 7 6 6 8 11 13 16 17 16 15 16 18 19 21 22 23 25 27 27 27 26 18 13 13 12 12 10
18 15 13 11 8 6 5 5 6 8 11 14 16 15 16 17 18 20 22 23 23 24 26 27 27 25 20 12 10 10 10 11
18 14 11 11 8 5 5 5 5 6 9 11 13 14 15 16 17 19 21 22 23 24 27 27 28 26 20 13 8 7 10 12
17 14 12 10 7 5 4 5 3 5 8 10 11 10 11 13 14 16 18 21 23 23 25 28 28 28 24 15 6 7 7 12
17 13 11 7 6 6 5 5 3 4 6 7 7 8 9 11 13 14 17 20 21 22 23 25 27 28 25 16 3 8 14 13
16 13 11 10 9 8 7 6 5 4 3 4 5 7 7 11 13 15 18 18 16 19 21 23 20 23 22 18 3 9 8 16
15 14 12 9 8 8 8 10 8 5 5 4 4 6 8 11 14 16 17 15 14 18 22 23 21 22 15 21 6 7 4 22
16 13 10 7 7 11 10 12 8 8 9 9 9 8 10 13 15 17 16 13 16 19 19 19 15 18 10 5 4 5 6 14
16 13 10 9 9 11 12 10 8 8 8 9 9 10 12 14 16 16 14 13 17 18 17 16 13 17 15 3 3 2 10 7
16 14 13 12 10 9 7 6 7 7 8 8 8 10 12 14 15 16 12 16 18 17 16 17 15 11 9 6 10 10 2 5
17 15 15 13 13 12 10 9 8 7 8 8 9 10 12 12 13 14 15 18 18 15 20 21 15 10 9 9 11 9 8 6
17 16 15 13 12 11 9 9 7 8 9 10 11 10 10 11 13 14 16 18 15 18 23 20 14 11 13 11 11 7 5 6
16 15 15 12 11 10 10 9 7 8 8 10 11 11 12 13 14 15 18 19 17 22 24 18 14 13 12 13 12 11 13 14
15 13 14 11 9 9 8 7 7 8 8 10 11 11 11 13 13 14 18 19 19 23 23 18 16 14 14 13 13 11 12 14
Wind_Direction
133 126 111 104 86 98 74 64 59 53 46 47 49 47 47 39 30 31 26 24 20 15 11 9 4 2 358 354 352 351 349 352
141 136 127 125 107 104 82 67 55 52 49 48 45 47 46 37 31 31 26 23 20 15 13 9 4 359 353 349 347 346 358 360
150 146 141 139 132 117 90 66 53 48 48 44 43 44 41 37 37 32 28 26 21 18 14 9 4 2 357 351 349 356 0 7
159 163 159 151 145 132 86 68 57 51 45 43 42 42 41 33 34 30 28 21 20 17 14 11 10 6 6 2 359 356 358 6
160 164 167 160 148 126 96 77 62 51 46 44 40 38 34 31 29 26 21 21 17 12 12 13 14 10 7 11 7 7 8 18
158 161 159 157 150 124 104 83 64 53 47 43 38 37 33 32 29 23 22 19 13 11 11 9 10 14 10 13 18 24 30 37
157 159 160 157 147 130 113 90 69 57 50 43 39 37 35 31 28 24 22 15 11 8 7 7 7 10 12 16 24 34 45 53
160 161 159 153 151 138 121 110 80 63 51 44 40 37 33 33 29 24 22 16 10 6 6 4 5 8 8 14 30 43 46 49
160 159 157 157 153 148 141 138 98 67 52 43 39 35 31 29 26 21 19 11 6 4 4 2 2 5 7 5 20 40 46 42
157 159 155 160 163 160 149 155 115 68 49 37 32 28 24 20 19 17 12 5 2 5 4 0 360 0 359 359 23 38 39 33
155 150 146 149 151 157 145 151 129 66 43 31 16 8 10 11 14 12 6 360 2 4 3 2 358 355 353 348 278 51 36 19
153 150 144 133 123 125 135 134 110 84 19 345 349 359 5 11 12 6 357 356 3 3 0 360 358 354 346 345 299 252 314 1
148 146 144 143 134 124 124 111 104 67 43 26 13 38 29 19 9 358 354 359 6 1 357 356 353 357 347 346 327 307 282 342
138 140 139 135 127 120 112 122 103 81 78 75 63 45 25 11 4 360 0 9 2 359 356 349 343 353 343 313 344 335 326 342
133 124 116 106 105 114 119 120 108 75 65 59 47 29 20 10 9 10 10 6 358 351 350 353 343 344 352 343 339 309 323 311
124 114 103 94 94 99 104 96 83 66 62 56 33 23 15 10 10 10 8 359 348 348 353 350 339 327 347 337 293 277 309 320
118 107 95 84 79 76 79 79 71 65 54 36 19 13 10 8 5 5 0 350 346 349 349 343 334 319 327 318 306 283 288 264
118 108 96 88 79 77 74 72 57 50 35 24 17 9 5 5 1 1 355 347 350 352 345 342 338 326 324 317 300 297 292 279
119 115 103 92 81 72 64 64 56 44 29 19 12 2 2 1 359 356 351 347 347 347 347 347 346 340 334 326 317 293 295 301
122 113 106 92 78 70 66 64 47 33 24 15 9 360 355 353 346 349 348 347 347 346 348 351 348 343 330 324 319 299 306 309